Location: Borojevi?i
(45.0486°N, 16.2297°E)
Time: 17:53:43
(UTC+00:00)

SL-16 R/B - Pass Details

Date: 08 August 2020
Orbit: 843 x 845 km, 71.0° (Epoch: 25 September)

Event Time Altitude Azimuth Distance (km) Brightness Sun altitude
Rises 21:35:14 0° 332° (NNW) 3,415 6.7 -26.1°
Reaches altitude 10° 21:37:41 10° 330° (NNW) 2,476 5.6 -26.3°
Maximum altitude 21:43:20 70° 248° (WSW) 901 2.2 -26.7°
Enters shadow 21:43:39 68° 225° (SW) 909 2.1 -26.7°
